Time,TemperatureF,DewpointF,PressureIn,WindDirection,WindDirectionDegrees,WindSpeedMPH,WindSpeedGustMPH,Humidity,HourlyPrecipIn,Conditions,Clouds,dailyrainin,SoftwareType,DateUTC
2013-01-21 00:00:00,29.6,15.4,29.99,NW,321,3.0,7.0,55,0.00,,,0.00,HR-IXPWINDi_r2_v1.2.,2013-01-21 05:00:00,
2013-01-21 00:05:00,29.4,15.3,30.00,North,354,7.0,8.0,55,0.00,,,0.00,HR-IXPWINDi_r2_v1.2.,2013-01-21 05:05:00,
2013-01-21 00:10:00,29.4,14.4,30.00,NW,314,10.0,14.0,53,0.00,,,0.00,HR-IXPWINDi_r2_v1.2.,2013-01-21 05:10:00,
2013-01-21 00:15:00,29.5,14.5,30.00,NNW,347,15.0,17.0,53,0.00,,,0.00,HR-IXPWINDi_r2_v1.2.,2013-01-21 05:15:00,
2013-01-21 00:20:00,29.6,13.7,30.01,WNW,295,2.0,17.0,51,0.00,,,0.00,HR-IXPWINDi_r2_v1.2.,2013-01-21 05:20:00,
2013-01-21 00:25:00,29.6,14.2,30.01,NW,316,4.0,17.0,52,0.00,,,0.00,HR-IXPWINDi_r2_v1.2.,2013-01-21 05:25:00,
2013-01-21 00:31:00,29.4,13.5,30.01,NW,316,8.0,14.0,51,0.00,,,0.00,HR-IXPWINDi_r2_v1.2.,2013-01-21 05:31:00,
2013-01-21 00:36:00,29.4,13.1,30.01,NNW,327,8.0,14.0,50,0.00,,,0.00,HR-IXPWINDi_r2_v1.2.,2013-01-21 05:36:00,
2013-01-21 00:41:00,29.4,12.6,30.02,WNW,294,3.0,14.0,49,0.00,,,0.00,HR-IXPWINDi_r2_v1.2.,2013-01-21 05:41:00,
2013-01-21 00:47:00,29.2,12.9,30.02,WNW,295,2.0,14.0,50,0.00,,,0.00,HR-IXPWINDi_r2_v1.2.,2013-01-21 05:47:00,
2013-01-21 00:52:00,29.2,12.9,30.02,SW,231,8.0,12.0,50,0.00,,,0.00,HR-IXPWINDi_r2_v1.2.,2013-01-21 05:52:00,
2013-01-21 00:57:00,29.2,12.4,30.02,West,278,3.0,14.0,49,0.00,,,0.00,HR-IXPWINDi_r2_v1.2.,2013-01-21 05:57:00,
2013-01-21 01:02:00,28.9,12.6,30.02,WNW,300,6.0,14.0,50,0.00,,,0.00,HR-IXPWINDi_r2_v1.2.,2013-01-21 06:02:00,
2013-01-21 01:08:00,28.6,12.3,30.03,NW,321,6.0,9.0,50,0.00,,,0.00,HR-IXPWINDi_r2_v1.2.,2013-01-21 06:08:00,
2013-01-21 01:13:00,28.6,11.4,30.03,West,276,4.0,14.0,48,0.00,,,0.00,HR-IXPWINDi_r2_v1.2.,2013-01-21 06:13:00,
2013-01-21 01:18:00,28.6,11.0,30.03,NW,323,10.0,15.0,47,0.00,,,0.00,HR-IXPWINDi_r2_v1.2.,2013-01-21 06:18:00,
2013-01-21 01:24:00,28.6,11.0,30.03,WNW,290,4.0,15.0,47,0.00,,,0.00,HR-IXPWINDi_r2_v1.2.,2013-01-21 06:24:00,
2013-01-21 01:29:00,28.6,10.0,30.04,NW,311,6.0,18.0,45,0.00,,,0.00,HR-IXPWINDi_r2_v1.2.,2013-01-21 06:29:00,
2013-01-21 01:34:00,28.6,10.0,30.04,NNW,334,7.0,18.0,45,0.00,,,0.00,HR-IXPWINDi_r2_v1.2.,2013-01-21 06:34:00,
2013-01-21 01:39:00,28.5,9.4,30.04,West,280,8.0,16.0,44,0.00,,,0.00,HR-IXPWINDi_r2_v1.2.,2013-01-21 06:39:00,
2013-01-21 01:44:00,28.4,9.3,30.05,NW,311,6.0,14.0,44,0.00,,,0.00,HR-IXPWINDi_r2_v1.2.,2013-01-21 06:44:00,
2013-01-21 01:49:00,28.3,9.2,30.05,WSW,243,6.0,12.0,44,0.00,,,0.00,HR-IXPWINDi_r2_v1.2.,2013-01-21 06:49:00,
2013-01-21 01:55:00,28.2,9.6,30.05,WNW,295,4.0,12.0,45,0.00,,,0.00,HR-IXPWINDi_r2_v1.2.,2013-01-21 06:55:00,
2013-01-21 02:00:00,28.1,9.0,30.05,West,259,5.0,12.0,44,0.00,,,0.00,HR-IXPWINDi_r2_v1.2.,2013-01-21 07:00:00,
2013-01-21 02:05:00,28.0,9.4,30.06,NW,321,1.0,12.0,45,0.00,,,0.00,HR-IXPWINDi_r2_v1.2.,2013-01-21 07:05:00,
2013-01-21 02:10:00,27.8,9.3,30.06,NW,315,6.0,8.0,45,0.00,,,0.00,HR-IXPWINDi_r2_v1.2.,2013-01-21 07:10:00,
2013-01-21 02:15:00,27.7,9.7,30.06,NNW,331,6.0,7.0,46,0.00,,,0.00,HR-IXPWINDi_r2_v1.2.,2013-01-21 07:15:00,
2013-01-21 02:21:00,27.6,9.6,30.06,West,266,3.0,7.0,46,0.00,,,0.00,HR-IXPWINDi_r2_v1.2.,2013-01-21 07:21:00,
2013-01-21 02:26:00,27.5,10.0,30.06,WNW,290,2.0,6.0,47,0.00,,,0.00,HR-IXPWINDi_r2_v1.2.,2013-01-21 07:26:00,
2013-01-21 02:31:00,27.3,9.8,30.07,West,278,2.0,5.0,47,0.00,,,0.00,HR-IXPWINDi_r2_v1.2.,2013-01-21 07:31:00,
2013-01-21 02:36:00,27.3,9.8,30.07,WNW,293,4.0,7.0,47,0.00,,,0.00,HR-IXPWINDi_r2_v1.2.,2013-01-21 07:36:00,
2013-01-21 02:42:00,27.1,9.6,30.07,WNW,290,4.0,7.0,47,0.00,,,0.00,HR-IXPWINDi_r2_v1.2.,2013-01-21 07:42:00,
2013-01-21 02:47:00,27.0,10.0,30.07,WNW,284,2.0,6.0,48,0.00,,,0.00,HR-IXPWINDi_r2_v1.2.,2013-01-21 07:47:00,
2013-01-21 02:52:00,26.7,10.1,30.07,WNW,284,1.0,6.0,49,0.00,,,0.00,HR-IXPWINDi_r2_v1.2.,2013-01-21 07:52:00,
2013-01-21 02:57:00,26.7,9.7,30.07,West,275,1.0,5.0,48,0.00,,,0.00,HR-IXPWINDi_r2_v1.2.,2013-01-21 07:57:00,
2013-01-21 03:03:00,26.8,9.8,30.07,West,276,2.0,7.0,48,0.00,,,0.00,HR-IXPWINDi_r2_v1.2.,2013-01-21 08:03:00,
2013-01-21 03:08:00,26.8,10.2,30.07,West,267,5.0,13.0,49,0.00,,,0.00,HR-IXPWINDi_r2_v1.2.,2013-01-21 08:08:00,
2013-01-21 03:13:00,27.0,10.4,30.07,NW,311,4.0,13.0,49,0.00,,,0.00,HR-IXPWINDi_r2_v1.2.,2013-01-21 08:13:00,
2013-01-21 03:18:00,27.0,10.0,30.07,NNW,338,6.0,12.0,48,0.00,,,0.00,HR-IXPWINDi_r2_v1.2.,2013-01-21 08:18:00,
2013-01-21 03:23:00,27.0,10.4,30.08,NW,311,8.0,12.0,49,0.00,,,0.00,HR-IXPWINDi_r2_v1.2.,2013-01-21 08:23:00,
2013-01-21 03:29:00,26.9,10.3,30.08,WNW,302,3.0,11.0,49,0.00,,,0.00,HR-IXPWINDi_r2_v1.2.,2013-01-21 08:29:00,
2013-01-21 03:34:00,26.8,10.2,30.08,West,278,2.0,11.0,49,0.00,,,0.00,HR-IXPWINDi_r2_v1.2.,2013-01-21 08:34:00,
2013-01-21 03:39:00,26.6,10.5,30.08,WSW,256,3.0,9.0,50,0.00,,,0.00,HR-IXPWINDi_r2_v1.2.,2013-01-21 08:39:00,
2013-01-21 03:44:00,26.5,10.9,30.08,WNW,293,4.0,8.0,51,0.00,,,0.00,HR-IXPWINDi_r2_v1.2.,2013-01-21 08:44:00,
2013-01-21 03:49:00,26.4,10.8,30.08,NW,321,4.0,8.0,51,0.00,,,0.00,HR-IXPWINDi_r2_v1.2.,2013-01-21 08:49:00,
2013-01-21 03:54:00,26.3,10.7,30.08,NNW,327,3.0,8.0,51,0.00,,,0.00,HR-IXPWINDi_r2_v1.2.,2013-01-21 08:54:00,
2013-01-21 03:59:00,26.1,10.9,30.08,NW,324,1.0,6.0,52,0.00,,,0.00,HR-IXPWINDi_r2_v1.2.,2013-01-21 08:59:00,
2013-01-21 04:04:00,25.9,10.7,30.08,NW,318,3.0,5.0,52,0.00,,,0.00,HR-IXPWINDi_r2_v1.2.,2013-01-21 09:04:00,
2013-01-21 04:10:00,25.9,11.2,30.08,WNW,302,1.0,4.0,53,0.00,,,0.00,HR-IXPWINDi_r2_v1.2.,2013-01-21 09:10:00,
2013-01-21 04:15:00,25.6,11.3,30.08,WNW,283,1.0,4.0,54,0.00,,,0.00,HR-IXPWINDi_r2_v1.2.,2013-01-21 09:15:00,
2013-01-21 04:20:00,25.4,11.1,30.09,West,267,3.0,3.0,54,0.00,,,0.00,HR-IXPWINDi_r2_v1.2.,2013-01-21 09:20:00,
2013-01-21 04:26:00,25.4,11.1,30.09,NW,311,3.0,4.0,54,0.00,,,0.00,HR-IXPWINDi_r2_v1.2.,2013-01-21 09:26:00,
2013-01-21 04:31:00,25.4,11.5,30.09,North,355,3.0,4.0,55,0.00,,,0.00,HR-IXPWINDi_r2_v1.2.,2013-01-21 09:31:00,
2013-01-21 04:36:00,25.3,11.4,30.09,NNW,346,1.0,4.0,55,0.00,,,0.00,HR-IXPWINDi_r2_v1.2.,2013-01-21 09:36:00,
2013-01-21 04:41:00,25.0,11.6,30.09,North,360,6.0,6.0,56,0.00,,,0.00,HR-IXPWINDi_r2_v1.2.,2013-01-21 09:41:00,
2013-01-21 04:46:00,24.9,11.9,30.09,NNW,335,2.0,7.0,57,0.00,,,0.00,HR-IXPWINDi_r2_v1.2.,2013-01-21 09:46:00,
2013-01-21 04:52:00,25.0,12.0,30.09,West,275,2.0,8.0,57,0.00,,,0.00,HR-IXPWINDi_r2_v1.2.,2013-01-21 09:52:00,
2013-01-21 04:57:00,25.0,11.6,30.09,NNW,341,6.0,11.0,56,0.00,,,0.00,HR-IXPWINDi_r2_v1.2.,2013-01-21 09:57:00,
2013-01-21 05:02:00,24.9,11.5,30.10,NNW,330,3.0,11.0,56,0.00,,,0.00,HR-IXPWINDi_r2_v1.2.,2013-01-21 10:02:00,
2013-01-21 05:08:00,24.8,11.4,30.10,NNW,333,3.0,8.0,56,0.00,,,0.00,HR-IXPWINDi_r2_v1.2.,2013-01-21 10:08:00,
2013-01-21 05:13:00,24.7,11.3,30.10,NNW,346,1.0,8.0,56,0.00,,,0.00,HR-IXPWINDi_r2_v1.2.,2013-01-21 10:13:00,
2013-01-21 05:18:00,24.6,11.6,30.10,NNW,335,1.0,6.0,57,0.00,,,0.00,HR-IXPWINDi_r2_v1.2.,2013-01-21 10:18:00,
2013-01-21 05:23:00,24.4,11.4,30.10,WNW,285,2.0,3.0,57,0.00,,,0.00,HR-IXPWINDi_r2_v1.2.,2013-01-21 10:23:00,
2013-01-21 05:28:00,24.4,11.8,30.10,NNW,332,6.0,10.0,58,0.00,,,0.00,HR-IXPWINDi_r2_v1.2.,2013-01-21 10:28:00,
2013-01-21 05:33:00,24.4,11.8,30.11,NW,321,3.0,10.0,58,0.00,,,0.00,HR-IXPWINDi_r2_v1.2.,2013-01-21 10:33:00,
2013-01-21 05:38:00,24.3,12.1,30.11,NNW,328,3.0,7.0,59,0.00,,,0.00,HR-IXPWINDi_r2_v1.2.,2013-01-21 10:38:00,
2013-01-21 05:44:00,24.2,12.0,30.11,NW,309,6.0,8.0,59,0.00,,,0.00,HR-IXPWINDi_r2_v1.2.,2013-01-21 10:44:00,
2013-01-21 05:49:00,24.2,12.4,30.11,North,352,4.0,8.0,60,0.00,,,0.00,HR-IXPWINDi_r2_v1.2.,2013-01-21 10:49:00,
2013-01-21 05:54:00,24.0,12.2,30.11,NNW,334,3.0,6.0,60,0.00,,,0.00,HR-IXPWINDi_r2_v1.2.,2013-01-21 10:54:00,
2013-01-21 05:59:00,24.0,12.5,30.11,North,355,3.0,6.0,61,0.00,,,0.00,HR-IXPWINDi_r2_v1.2.,2013-01-21 10:59:00,
2013-01-21 06:04:00,23.8,12.4,30.11,NNW,340,3.0,6.0,61,0.00,,,0.00,HR-IXPWINDi_r2_v1.2.,2013-01-21 11:04:00,
2013-01-21 06:09:00,23.7,12.6,30.11,North,349,2.0,5.0,62,0.00,,,0.00,HR-IXPWINDi_r2_v1.2.,2013-01-21 11:09:00,
2013-01-21 06:15:00,23.6,12.5,30.12,North,358,3.0,5.0,62,0.00,,,0.00,HR-IXPWINDi_r2_v1.2.,2013-01-21 11:15:00,
2013-01-21 06:20:00,23.5,12.4,30.12,NNW,340,4.0,5.0,62,0.00,,,0.00,HR-IXPWINDi_r2_v1.2.,2013-01-21 11:20:00,
2013-01-21 06:25:00,23.4,12.3,30.12,NNW,333,4.0,5.0,62,0.00,,,0.00,HR-IXPWINDi_r2_v1.2.,2013-01-21 11:25:00,
2013-01-21 06:30:00,23.3,12.6,30.12,North,5,3.0,6.0,63,0.00,,,0.00,HR-IXPWINDi_r2_v1.2.,2013-01-21 11:30:00,
2013-01-21 06:36:00,23.2,12.5,30.12,North,7,6.0,6.0,63,0.00,,,0.00,HR-IXPWINDi_r2_v1.2.,2013-01-21 11:36:00,
2013-01-21 06:41:00,23.1,12.4,30.12,NNE,12,2.0,6.0,63,0.00,,,0.00,HR-IXPWINDi_r2_v1.2.,2013-01-21 11:41:00,
2013-01-21 06:46:00,22.9,12.2,30.12,NNW,340,3.0,6.0,63,0.00,,,0.00,HR-IXPWINDi_r2_v1.2.,2013-01-21 11:46:00,
2013-01-21 06:51:00,22.7,12.4,30.12,NNE,13,3.0,6.0,64,0.00,,,0.00,HR-IXPWINDi_r2_v1.2.,2013-01-21 11:51:00,
2013-01-21 06:57:00,22.5,12.2,30.12,NNE,14,3.0,7.0,64,0.00,,,0.00,HR-IXPWINDi_r2_v1.2.,2013-01-21 11:57:00,
2013-01-21 07:02:00,22.4,11.8,30.13,North,5,4.0,7.0,63,0.00,,,0.00,HR-IXPWINDi_r2_v1.2.,2013-01-21 12:02:00,
2013-01-21 07:07:00,22.4,11.4,30.13,NNW,339,7.0,8.0,62,0.00,,,0.00,HR-IXPWINDi_r2_v1.2.,2013-01-21 12:07:00,
2013-01-21 07:12:00,22.3,10.9,30.13,NNW,340,5.0,8.0,61,0.00,,,0.00,HR-IXPWINDi_r2_v1.2.,2013-01-21 12:12:00,
2013-01-21 07:17:00,22.2,10.8,30.14,NNW,341,2.0,8.0,61,0.00,,,0.00,HR-IXPWINDi_r2_v1.2.,2013-01-21 12:17:00,
2013-01-21 07:23:00,22.3,10.6,30.14,North,353,2.0,7.0,60,0.00,,,0.00,HR-IXPWINDi_r2_v1.2.,2013-01-21 12:23:00,
2013-01-21 07:28:00,22.3,10.6,30.15,NNW,342,3.0,7.0,60,0.00,,,0.00,HR-IXPWINDi_r2_v1.2.,2013-01-21 12:28:00,
2013-01-21 07:33:00,22.3,10.2,30.15,North,357,3.0,7.0,59,0.00,,,0.00,HR-IXPWINDi_r2_v1.2.,2013-01-21 12:33:00,
2013-01-21 07:39:00,22.3,10.2,30.15,North,349,2.0,6.0,59,0.00,,,0.00,HR-IXPWINDi_r2_v1.2.,2013-01-21 12:39:00,
2013-01-21 07:44:00,22.4,10.3,30.15,NNE,13,0.0,5.0,59,0.00,,,0.00,HR-IXPWINDi_r2_v1.2.,2013-01-21 12:44:00,
2013-01-21 07:49:00,22.5,10.4,30.15,NNW,330,0.0,4.0,59,0.00,,,0.00,HR-IXPWINDi_r2_v1.2.,2013-01-21 12:49:00,
2013-01-21 07:54:00,22.6,10.5,30.15,North,352,6.0,6.0,59,0.00,,,0.00,HR-IXPWINDi_r2_v1.2.,2013-01-21 12:54:00,
2013-01-21 07:59:00,22.8,10.7,30.15,NNW,330,2.0,6.0,59,0.00,,,0.00,HR-IXPWINDi_r2_v1.2.,2013-01-21 12:59:00,
2013-01-21 08:05:00,22.9,10.8,30.15,North,7,3.0,6.0,59,0.00,,,0.00,HR-IXPWINDi_r2_v1.2.,2013-01-21 13:05:00,
2013-01-21 08:10:00,23.2,10.7,30.15,NNW,347,1.0,5.0,58,0.00,,,0.00,HR-IXPWINDi_r2_v1.2.,2013-01-21 13:10:00,
2013-01-21 08:15:00,23.4,10.5,30.15,North,352,2.0,8.0,57,0.00,,,0.00,HR-IXPWINDi_r2_v1.2.,2013-01-21 13:15:00,
2013-01-21 08:20:00,23.5,10.5,30.15,North,360,4.0,8.0,57,0.00,,,0.00,HR-IXPWINDi_r2_v1.2.,2013-01-21 13:20:00,
2013-01-21 08:25:00,23.5,10.5,30.15,NNW,338,5.0,7.0,57,0.00,,,0.00,HR-IXPWINDi_r2_v1.2.,2013-01-21 13:25:00,
2013-01-21 08:30:00,23.8,10.8,30.15,North,11,2.0,6.0,57,0.00,,,0.00,HR-IXPWINDi_r2_v1.2.,2013-01-21 13:30:00,
2013-01-21 08:36:00,23.8,10.4,30.15,NE,36,3.0,6.0,56,0.00,,,0.00,HR-IXPWINDi_r2_v1.2.,2013-01-21 13:36:00,
2013-01-21 08:41:00,23.9,10.5,30.15,North,356,4.0,6.0,56,0.00,,,0.00,HR-IXPWINDi_r2_v1.2.,2013-01-21 13:41:00,
2013-01-21 08:46:00,23.9,10.5,30.15,NNW,341,2.0,6.0,56,0.00,,,0.00,HR-IXPWINDi_r2_v1.2.,2013-01-21 13:46:00,
2013-01-21 08:51:00,24.0,10.6,30.14,NNE,12,5.0,8.0,56,0.00,,,0.00,HR-IXPWINDi_r2_v1.2.,2013-01-21 13:51:00,
2013-01-21 08:56:00,24.1,10.7,30.14,NNE,13,4.0,8.0,56,0.00,,,0.00,HR-IXPWINDi_r2_v1.2.,2013-01-21 13:56:00,
2013-01-21 09:01:00,24.3,10.9,30.14,North,8,4.0,8.0,56,0.00,,,0.00,HR-IXPWINDi_r2_v1.2.,2013-01-21 14:01:00,
2013-01-21 09:06:00,24.5,11.1,30.14,North,1,4.0,6.0,56,0.00,,,0.00,HR-IXPWINDi_r2_v1.2.,2013-01-21 14:06:00,
2013-01-21 09:12:00,24.6,10.8,30.14,NNW,339,1.0,6.0,55,0.00,,,0.00,HR-IXPWINDi_r2_v1.2.,2013-01-21 14:12:00,
2013-01-21 09:17:00,25.0,11.2,30.14,NNW,333,4.0,7.0,55,0.00,,,0.00,HR-IXPWINDi_r2_v1.2.,2013-01-21 14:17:00,
2013-01-21 09:22:00,25.3,11.0,30.14,NNE,23,8.0,9.0,54,0.00,,,0.00,HR-IXPWINDi_r2_v1.2.,2013-01-21 14:22:00,
2013-01-21 09:27:00,25.3,11.0,30.14,NNW,339,1.0,9.0,54,0.00,,,0.00,HR-IXPWINDi_r2_v1.2.,2013-01-21 14:27:00,
2013-01-21 09:33:00,25.6,10.5,30.14,NNW,339,4.0,9.0,52,0.00,,,0.00,HR-IXPWINDi_r2_v1.2.,2013-01-21 14:33:00,
2013-01-21 09:38:00,25.5,10.4,30.14,North,357,6.0,10.0,52,0.00,,,0.00,HR-IXPWINDi_r2_v1.2.,2013-01-21 14:38:00,
2013-01-21 09:43:00,25.5,10.4,30.15,North,360,5.0,10.0,52,0.00,,,0.00,HR-IXPWINDi_r2_v1.2.,2013-01-21 14:43:00,
2013-01-21 09:48:00,25.6,10.0,30.15,North,360,6.0,9.0,51,0.00,,,0.00,HR-IXPWINDi_r2_v1.2.,2013-01-21 14:48:00,
2013-01-21 09:53:00,25.8,10.2,30.16,NNE,16,5.0,10.0,51,0.00,,,0.00,HR-IXPWINDi_r2_v1.2.,2013-01-21 14:53:00,
2013-01-21 09:59:00,26.0,10.4,30.16,North,349,4.0,10.0,51,0.00,,,0.00,HR-IXPWINDi_r2_v1.2.,2013-01-21 14:59:00,
2013-01-21 10:04:00,26.0,10.4,30.15,North,1,8.0,10.0,51,0.00,,,0.00,HR-IXPWINDi_r2_v1.2.,2013-01-21 15:04:00,
2013-01-21 10:09:00,26.1,10.0,30.15,NNW,342,5.0,10.0,50,0.00,,,0.00,HR-IXPWINDi_r2_v1.2.,2013-01-21 15:09:00,
2013-01-21 10:14:00,26.2,10.1,30.15,NNW,331,5.0,10.0,50,0.00,,,0.00,HR-IXPWINDi_r2_v1.2.,2013-01-21 15:14:00,
2013-01-21 10:19:00,26.5,10.0,30.14,NW,322,5.0,9.0,49,0.00,,,0.00,HR-IXPWINDi_r2_v1.2.,2013-01-21 15:19:00,
2013-01-21 10:25:00,26.4,9.9,30.14,NNW,347,6.0,10.0,49,0.00,,,0.00,HR-IXPWINDi_r2_v1.2.,2013-01-21 15:25:00,
2013-01-21 10:30:00,26.4,10.3,30.14,North,355,3.0,10.0,50,0.00,,,0.00,HR-IXPWINDi_r2_v1.2.,2013-01-21 15:30:00,
2013-01-21 10:35:00,26.6,10.1,30.14,NNW,345,3.0,7.0,49,0.00,,,0.00,HR-IXPWINDi_r2_v1.2.,2013-01-21 15:35:00,
2013-01-21 10:40:00,26.6,10.5,30.13,North,350,6.0,8.0,50,0.00,,,0.00,HR-IXPWINDi_r2_v1.2.,2013-01-21 15:40:00,
2013-01-21 10:45:00,27.1,11.4,30.13,WNW,293,1.0,8.0,51,0.00,,,0.00,HR-IXPWINDi_r2_v1.2.,2013-01-21 15:45:00,
2013-01-21 10:51:00,27.3,10.7,30.13,West,281,1.0,6.0,49,0.00,,,0.00,HR-IXPWINDi_r2_v1.2.,2013-01-21 15:51:00,
2013-01-21 10:56:00,27.4,11.2,30.13,NNE,19,6.0,6.0,50,0.00,,,0.00,HR-IXPWINDi_r2_v1.2.,2013-01-21 15:56:00,
2013-01-21 11:01:00,27.2,10.6,30.13,NE,38,2.0,6.0,49,0.00,,,0.00,HR-IXPWINDi_r2_v1.2.,2013-01-21 16:01:00,
2013-01-21 11:06:00,27.6,11.0,30.12,SSE,155,0.0,6.0,49,0.00,,,0.00,HR-IXPWINDi_r2_v1.2.,2013-01-21 16:06:00,
2013-01-21 11:11:00,28.1,11.0,30.12,South,188,1.0,4.0,48,0.00,,,0.00,HR-IXPWINDi_r2_v1.2.,2013-01-21 16:11:00,
2013-01-21 11:16:00,28.7,12.4,30.11,South,184,3.0,5.0,50,0.00,,,0.00,HR-IXPWINDi_r2_v1.2.,2013-01-21 16:16:00,
2013-01-21 11:22:00,28.6,12.3,30.11,WSW,256,1.0,6.0,50,0.00,,,0.00,HR-IXPWINDi_r2_v1.2.,2013-01-21 16:22:00,
2013-01-21 11:27:00,28.6,12.3,30.11,South,190,4.0,8.0,50,0.00,,,0.00,HR-IXPWINDi_r2_v1.2.,2013-01-21 16:27:00,
2013-01-21 11:32:00,28.5,12.3,30.10,SSW,207,8.0,12.0,50,0.00,,,0.00,HR-IXPWINDi_r2_v1.2.,2013-01-21 16:32:00,
2013-01-21 11:37:00,28.2,12.9,30.10,South,186,3.0,12.0,52,0.00,,,0.00,HR-IXPWINDi_r2_v1.2.,2013-01-21 16:37:00,
2013-01-21 11:42:00,28.1,12.3,30.09,SSW,201,3.0,9.0,51,0.00,,,0.00,HR-IXPWINDi_r2_v1.2.,2013-01-21 16:42:00,
2013-01-21 11:47:00,28.0,12.7,30.09,SW,221,6.0,9.0,52,0.00,,,0.00,HR-IXPWINDi_r2_v1.2.,2013-01-21 16:47:00,
2013-01-21 11:53:00,27.9,12.6,30.09,WSW,246,6.0,9.0,52,0.00,,,0.00,HR-IXPWINDi_r2_v1.2.,2013-01-21 16:53:00,
2013-01-21 11:58:00,28.2,13.3,30.08,SW,224,7.0,9.0,53,0.00,,,0.00,HR-IXPWINDi_r2_v1.2.,2013-01-21 16:58:00,
2013-01-21 12:03:00,28.2,12.0,30.08,SSW,204,8.0,13.0,50,0.00,,,0.00,HR-IXPWINDi_r2_v1.2.,2013-01-21 17:03:00,
2013-01-21 12:08:00,28.2,11.1,30.08,SW,235,9.0,13.0,48,0.00,,,0.00,HR-IXPWINDi_r2_v1.2.,2013-01-21 17:08:00,
2013-01-21 12:14:00,28.5,11.8,30.07,SW,235,9.0,12.0,49,0.00,,,0.00,HR-IXPWINDi_r2_v1.2.,2013-01-21 17:14:00,
2013-01-21 12:19:00,28.5,12.7,30.07,SW,231,6.0,10.0,51,0.00,,,0.00,HR-IXPWINDi_r2_v1.2.,2013-01-21 17:19:00,
2013-01-21 12:24:00,28.7,12.9,30.06,WSW,249,5.0,10.0,51,0.00,,,0.00,HR-IXPWINDi_r2_v1.2.,2013-01-21 17:24:00,
2013-01-21 12:29:00,28.6,11.4,30.06,SW,235,4.0,16.0,48,0.00,,,0.00,HR-IXPWINDi_r2_v1.2.,2013-01-21 17:29:00,
2013-01-21 12:34:00,28.8,13.9,30.06,WSW,237,11.0,16.0,53,0.00,,,0.00,HR-IXPWINDi_r2_v1.2.,2013-01-21 17:34:00,
2013-01-21 12:39:00,29.0,14.5,30.06,SSW,201,3.0,15.0,54,0.00,,,0.00,HR-IXPWINDi_r2_v1.2.,2013-01-21 17:39:00,
2013-01-21 12:45:00,29.1,12.4,30.05,SW,221,3.0,11.0,49,0.00,,,0.00,HR-IXPWINDi_r2_v1.2.,2013-01-21 17:45:00,
2013-01-21 12:50:00,29.3,13.0,30.05,South,191,2.0,10.0,50,0.00,,,0.00,HR-IXPWINDi_r2_v1.2.,2013-01-21 17:50:00,
2013-01-21 12:55:00,29.0,12.7,30.05,SSW,203,8.0,10.0,50,0.00,,,0.00,HR-IXPWINDi_r2_v1.2.,2013-01-21 17:55:00,
2013-01-21 13:01:00,29.2,12.9,30.04,SSW,194,4.0,9.0,50,0.00,,,0.00,HR-IXPWINDi_r2_v1.2.,2013-01-21 18:01:00,
2013-01-21 13:06:00,29.2,12.9,30.04,South,173,3.0,10.0,50,0.00,,,0.00,HR-IXPWINDi_r2_v1.2.,2013-01-21 18:06:00,
2013-01-21 13:11:00,29.1,12.8,30.04,SSW,207,10.0,11.0,50,0.00,,,0.00,HR-IXPWINDi_r2_v1.2.,2013-01-21 18:11:00,
2013-01-21 13:17:00,28.8,13.4,30.04,SW,222,10.0,11.0,52,0.00,,,0.00,HR-IXPWINDi_r2_v1.2.,2013-01-21 18:17:00,
2013-01-21 13:22:00,28.8,13.0,30.04,SW,233,9.0,11.0,51,0.00,,,0.00,HR-IXPWINDi_r2_v1.2.,2013-01-21 18:22:00,
2013-01-21 13:27:00,28.7,12.4,30.04,SSW,210,3.0,12.0,50,0.00,,,0.00,HR-IXPWINDi_r2_v1.2.,2013-01-21 18:27:00,
2013-01-21 13:32:00,28.7,14.2,30.04,SSW,207,5.0,12.0,54,0.00,,,0.00,HR-IXPWINDi_r2_v1.2.,2013-01-21 18:32:00,
2013-01-21 13:38:00,28.7,15.4,30.04,South,186,6.0,11.0,57,0.00,,,0.00,HR-IXPWINDi_r2_v1.2.,2013-01-21 18:38:00,
2013-01-21 13:43:00,28.7,14.6,30.03,SSW,203,6.0,7.0,55,0.00,,,0.00,HR-IXPWINDi_r2_v1.2.,2013-01-21 18:43:00,
2013-01-21 13:48:00,28.7,16.2,30.03,WSW,246,8.0,10.0,59,0.00,,,0.00,HR-IXPWINDi_r2_v1.2.,2013-01-21 18:48:00,
2013-01-21 13:53:00,28.5,16.4,30.03,SSW,210,5.0,11.0,60,0.00,,,0.00,HR-IXPWINDi_r2_v1.2.,2013-01-21 18:53:00,
2013-01-21 13:58:00,28.5,15.6,30.03,SSE,155,4.0,11.0,58,0.00,,,0.00,HR-IXPWINDi_r2_v1.2.,2013-01-21 18:58:00,
2013-01-21 14:03:00,28.5,16.0,30.03,South,177,4.0,9.0,59,0.00,,,0.00,HR-IXPWINDi_r2_v1.2.,2013-01-21 19:03:00,
2013-01-21 14:09:00,28.5,16.8,30.03,SSE,159,4.0,9.0,61,0.00,,,0.00,HR-IXPWINDi_r2_v1.2.,2013-01-21 19:09:00,
2013-01-21 14:14:00,28.5,16.4,30.02,SSW,208,4.0,7.0,60,0.00,,,0.00,HR-IXPWINDi_r2_v1.2.,2013-01-21 19:14:00,
2013-01-21 14:19:00,28.5,16.8,30.03,SW,219,3.0,8.0,61,0.00,,,0.00,HR-IXPWINDi_r2_v1.2.,2013-01-21 19:19:00,
2013-01-21 14:24:00,28.6,18.3,30.03,SSW,212,7.0,8.0,65,0.00,,,0.00,HR-IXPWINDi_r2_v1.2.,2013-01-21 19:24:00,
2013-01-21 14:29:00,28.6,17.6,30.03,South,172,3.0,8.0,63,0.00,,,0.00,HR-IXPWINDi_r2_v1.2.,2013-01-21 19:29:00,
2013-01-21 14:35:00,28.6,18.3,30.02,SE,139,8.0,8.0,65,0.00,,,0.00,HR-IXPWINDi_r2_v1.2.,2013-01-21 19:35:00,
2013-01-21 14:40:00,28.4,17.1,30.02,SSE,162,4.0,8.0,62,0.00,,,0.00,HR-IXPWINDi_r2_v1.2.,2013-01-21 19:40:00,
2013-01-21 14:45:00,28.6,18.3,30.02,SSW,193,4.0,10.0,65,0.00,,,0.00,HR-IXPWINDi_r2_v1.2.,2013-01-21 19:45:00,
2013-01-21 14:50:00,28.6,18.3,30.02,SSE,158,8.0,10.0,65,0.00,,,0.00,HR-IXPWINDi_r2_v1.2.,2013-01-21 19:50:00,
2013-01-21 14:56:00,28.6,18.7,30.02,SSE,153,5.0,9.0,66,0.00,,,0.00,HR-IXPWINDi_r2_v1.2.,2013-01-21 19:56:00,
2013-01-21 15:01:00,28.6,18.7,30.02,SSE,148,6.0,9.0,66,0.00,,,0.00,HR-IXPWINDi_r2_v1.2.,2013-01-21 20:01:00,
2013-01-21 15:06:00,28.5,19.0,30.02,SE,146,8.0,9.0,67,0.00,,,0.00,HR-IXPWINDi_r2_v1.2.,2013-01-21 20:06:00,
2013-01-21 15:11:00,28.7,19.5,30.01,SSE,165,5.0,9.0,68,0.00,,,0.00,HR-IXPWINDi_r2_v1.2.,2013-01-21 20:11:00,
2013-01-21 15:16:00,28.9,20.4,30.00,South,179,10.0,13.0,70,0.00,,,0.00,HR-IXPWINDi_r2_v1.2.,2013-01-21 20:16:00,
2013-01-21 15:22:00,28.8,20.3,30.00,SSE,162,6.0,13.0,70,0.00,,,0.00,HR-IXPWINDi_r2_v1.2.,2013-01-21 20:22:00,
2013-01-21 15:27:00,28.9,21.7,30.00,SE,136,7.0,13.0,74,0.00,,,0.00,HR-IXPWINDi_r2_v1.2.,2013-01-21 20:27:00,
2013-01-21 15:32:00,28.6,21.4,30.00,SSE,150,11.0,12.0,74,0.00,,,0.00,HR-IXPWINDi_r2_v1.2.,2013-01-21 20:32:00,
2013-01-21 15:38:00,28.3,21.4,30.00,SE,143,8.0,11.0,75,0.00,,,0.00,HR-IXPWINDi_r2_v1.2.,2013-01-21 20:38:00,
2013-01-21 15:43:00,28.3,21.7,30.00,SE,143,6.0,11.0,76,0.00,,,0.00,HR-IXPWINDi_r2_v1.2.,2013-01-21 20:43:00,
2013-01-21 15:48:00,28.2,22.2,29.99,SSE,152,3.0,10.0,78,0.00,,,0.00,HR-IXPWINDi_r2_v1.2.,2013-01-21 20:48:00,
2013-01-21 15:53:00,28.0,22.6,29.99,SE,126,5.0,8.0,80,0.00,,,0.00,HR-IXPWINDi_r2_v1.2.,2013-01-21 20:53:00,
2013-01-21 15:58:00,27.8,22.7,29.99,SSE,167,4.0,8.0,81,0.00,,,0.00,HR-IXPWINDi_r2_v1.2.,2013-01-21 20:58:00,
2013-01-21 16:03:00,27.8,23.3,29.99,SSE,155,4.0,8.0,83,0.00,,,0.00,HR-IXPWINDi_r2_v1.2.,2013-01-21 21:03:00,
2013-01-21 16:08:00,27.7,23.5,29.99,SE,127,3.0,8.0,84,0.00,,,0.00,HR-IXPWINDi_r2_v1.2.,2013-01-21 21:08:00,
2013-01-21 16:13:00,27.5,23.3,29.99,SE,133,2.0,7.0,84,0.00,,,0.00,HR-IXPWINDi_r2_v1.2.,2013-01-21 21:13:00,
2013-01-21 16:18:00,27.5,23.6,29.98,SE,136,4.0,6.0,85,0.00,,,0.00,HR-IXPWINDi_r2_v1.2.,2013-01-21 21:18:00,
2013-01-21 16:24:00,27.5,23.9,29.98,SSE,155,4.0,8.0,86,0.00,,,0.00,HR-IXPWINDi_r2_v1.2.,2013-01-21 21:24:00,
2013-01-21 16:29:00,27.6,24.2,29.97,SSE,147,1.0,8.0,87,0.00,,,0.00,HR-IXPWINDi_r2_v1.2.,2013-01-21 21:29:00,
2013-01-21 16:34:00,27.7,24.6,29.96,ENE,78,1.0,5.0,88,0.00,,,0.00,HR-IXPWINDi_r2_v1.2.,2013-01-21 21:34:00,
2013-01-21 16:39:00,27.6,24.8,29.97,East,81,0.0,3.0,89,0.00,,,0.00,HR-IXPWINDi_r2_v1.2.,2013-01-21 21:39:00,
2013-01-21 16:44:00,27.5,24.9,29.97,ENE,75,0.0,2.0,90,0.00,,,0.00,HR-IXPWINDi_r2_v1.2.,2013-01-21 21:44:00,
2013-01-21 16:50:00,27.6,25.0,29.96,ENE,72,1.0,2.0,90,0.00,,,0.00,HR-IXPWINDi_r2_v1.2.,2013-01-21 21:50:00,
2013-01-21 16:55:00,27.7,25.4,29.96,ENE,75,0.0,2.0,91,0.00,,,0.00,HR-IXPWINDi_r2_v1.2.,2013-01-21 21:55:00,
2013-01-21 17:00:00,27.9,25.6,29.96,ENE,72,2.0,2.0,91,0.00,,,0.00,HR-IXPWINDi_r2_v1.2.,2013-01-21 22:00:00,
2013-01-21 17:05:00,28.1,25.8,29.96,ENE,68,2.0,3.0,91,0.00,,,0.00,HR-IXPWINDi_r2_v1.2.,2013-01-21 22:05:00,
2013-01-21 17:10:00,28.1,26.1,29.96,ENE,78,1.0,3.0,92,0.00,,,0.00,HR-IXPWINDi_r2_v1.2.,2013-01-21 22:10:00,
2013-01-21 17:16:00,28.2,26.2,29.96,ENE,71,2.0,3.0,92,0.00,,,0.00,HR-IXPWINDi_r2_v1.2.,2013-01-21 22:16:00,
2013-01-21 17:21:00,28.2,26.2,29.95,ESE,113,2.0,3.0,92,0.00,,,0.00,HR-IXPWINDi_r2_v1.2.,2013-01-21 22:21:00,
2013-01-21 17:26:00,28.3,26.5,29.95,ENE,70,1.0,3.0,93,0.00,,,0.00,HR-IXPWINDi_r2_v1.2.,2013-01-21 22:26:00,
2013-01-21 17:31:00,28.4,26.6,29.95,East,98,0.0,3.0,93,0.00,,,0.00,HR-IXPWINDi_r2_v1.2.,2013-01-21 22:31:00,
2013-01-21 17:36:00,28.5,26.7,29.95,East,84,1.0,2.0,93,0.00,,,0.00,HR-IXPWINDi_r2_v1.2.,2013-01-21 22:36:00,
2013-01-21 17:41:00,28.7,26.9,29.95,ENE,77,0.0,3.0,93,0.00,,,0.00,HR-IXPWINDi_r2_v1.2.,2013-01-21 22:41:00,
2013-01-21 17:47:00,28.9,27.4,29.95,East,94,2.0,3.0,94,0.00,,,0.00,HR-IXPWINDi_r2_v1.2.,2013-01-21 22:47:00,
2013-01-21 17:52:00,29.0,27.5,29.95,ESE,109,0.0,4.0,94,0.00,,,0.00,HR-IXPWINDi_r2_v1.2.,2013-01-21 22:52:00,
2013-01-21 17:57:00,29.3,27.8,29.95,SE,137,2.0,4.0,94,0.00,,,0.00,HR-IXPWINDi_r2_v1.2.,2013-01-21 22:57:00,
2013-01-21 18:02:00,29.6,28.1,29.95,SSW,195,0.0,2.0,94,0.00,,,0.00,HR-IXPWINDi_r2_v1.2.,2013-01-21 23:02:00,
2013-01-21 18:07:00,29.7,28.2,29.95,NW,318,2.0,3.0,94,0.00,,,0.00,HR-IXPWINDi_r2_v1.2.,2013-01-21 23:07:00,
2013-01-21 18:12:00,28.8,27.0,29.95,NNW,342,0.0,4.0,93,0.00,,,0.00,HR-IXPWINDi_r2_v1.2.,2013-01-21 23:12:00,
2013-01-21 18:18:00,28.6,27.1,29.95,NNW,346,0.0,4.0,94,0.00,,,0.00,HR-IXPWINDi_r2_v1.2.,2013-01-21 23:18:00,
2013-01-21 18:23:00,28.5,27.0,29.95,NNW,342,2.0,2.0,94,0.00,,,0.00,HR-IXPWINDi_r2_v1.2.,2013-01-21 23:23:00,
2013-01-21 18:28:00,28.2,26.7,29.95,NNW,346,2.0,2.0,94,0.00,,,0.00,HR-IXPWINDi_r2_v1.2.,2013-01-21 23:28:00,
2013-01-21 18:33:00,28.1,26.6,29.95,NNW,346,1.0,2.0,94,0.00,,,0.00,HR-IXPWINDi_r2_v1.2.,2013-01-21 23:33:00,
2013-01-21 18:39:00,27.9,26.4,29.95,NNW,341,2.0,3.0,94,0.00,,,0.00,HR-IXPWINDi_r2_v1.2.,2013-01-21 23:39:00,
2013-01-21 18:44:00,27.8,26.3,29.94,NNW,342,2.0,3.0,94,0.00,,,0.00,HR-IXPWINDi_r2_v1.2.,2013-01-21 23:44:00,
2013-01-21 18:49:00,27.8,26.3,29.95,North,349,2.0,3.0,94,0.00,,,0.00,HR-IXPWINDi_r2_v1.2.,2013-01-21 23:49:00,
2013-01-21 18:54:00,27.8,26.5,29.94,NW,321,2.0,3.0,95,0.00,,,0.00,HR-IXPWINDi_r2_v1.2.,2013-01-21 23:54:00,
2013-01-21 19:00:00,27.7,26.4,29.94,NNE,26,0.0,3.0,95,0.00,,,0.00,HR-IXPWINDi_r2_v1.2.,2013-01-22 00:00:00,
2013-01-21 19:05:00,27.7,26.4,29.94,NNW,339,3.0,4.0,95,0.00,,,0.00,HR-IXPWINDi_r2_v1.2.,2013-01-22 00:05:00,
2013-01-21 19:10:00,27.7,26.4,29.93,North,8,4.0,4.0,95,0.00,,,0.00,HR-IXPWINDi_r2_v1.2.,2013-01-22 00:10:00,
2013-01-21 19:15:00,27.7,26.4,29.93,North,6,3.0,5.0,95,0.00,,,0.00,HR-IXPWINDi_r2_v1.2.,2013-01-22 00:15:00,
2013-01-21 19:21:00,27.7,26.4,29.93,North,9,3.0,5.0,95,0.00,,,0.00,HR-IXPWINDi_r2_v1.2.,2013-01-22 00:21:00,
2013-01-21 19:26:00,27.7,26.4,29.93,North,9,2.0,5.0,95,0.00,,,0.00,HR-IXPWINDi_r2_v1.2.,2013-01-22 00:26:00,
2013-01-21 19:31:00,27.7,26.4,29.93,NNE,19,2.0,5.0,95,0.00,,,0.00,HR-IXPWINDi_r2_v1.2.,2013-01-22 00:31:00,
2013-01-21 19:36:00,27.5,26.2,29.92,North,7,2.0,5.0,95,0.00,,,0.00,HR-IXPWINDi_r2_v1.2.,2013-01-22 00:36:00,
2013-01-21 19:42:00,27.5,26.2,29.93,North,10,1.0,5.0,95,0.00,,,0.00,HR-IXPWINDi_r2_v1.2.,2013-01-22 00:42:00,
2013-01-21 19:47:00,27.4,26.1,29.93,North,354,2.0,4.0,95,0.00,,,0.00,HR-IXPWINDi_r2_v1.2.,2013-01-22 00:47:00,
2013-01-21 19:52:00,27.4,26.1,29.93,North,9,1.0,4.0,95,0.00,,,0.00,HR-IXPWINDi_r2_v1.2.,2013-01-22 00:52:00,
2013-01-21 19:57:00,27.3,26.0,29.93,North,353,2.0,4.0,95,0.00,,,0.00,HR-IXPWINDi_r2_v1.2.,2013-01-22 00:57:00,
2013-01-21 20:02:00,27.3,26.0,29.92,NNE,16,2.0,4.0,95,0.00,,,0.00,HR-IXPWINDi_r2_v1.2.,2013-01-22 01:02:00,
2013-01-21 20:08:00,27.2,25.9,29.92,NNE,30,2.0,4.0,95,0.00,,,0.00,HR-IXPWINDi_r2_v1.2.,2013-01-22 01:08:00,
2013-01-21 20:13:00,27.1,25.8,29.92,NNE,16,4.0,4.0,95,0.00,,,0.00,HR-IXPWINDi_r2_v1.2.,2013-01-22 01:13:00,
2013-01-21 20:18:00,27.0,25.7,29.92,North,4,1.0,5.0,95,0.00,,,0.00,HR-IXPWINDi_r2_v1.2.,2013-01-22 01:18:00,
2013-01-21 20:23:00,27.0,25.7,29.91,NNE,18,3.0,5.0,95,0.00,,,0.00,HR-IXPWINDi_r2_v1.2.,2013-01-22 01:23:00,
2013-01-21 20:28:00,26.9,25.6,29.90,NE,36,2.0,6.0,95,0.00,,,0.00,HR-IXPWINDi_r2_v1.2.,2013-01-22 01:28:00,
2013-01-21 20:33:00,26.8,25.5,29.90,NNE,20,1.0,6.0,95,0.00,,,0.00,HR-IXPWINDi_r2_v1.2.,2013-01-22 01:33:00,
2013-01-21 20:38:00,26.8,25.5,29.90,North,349,2.0,5.0,95,0.00,,,0.00,HR-IXPWINDi_r2_v1.2.,2013-01-22 01:38:00,
2013-01-21 20:44:00,26.9,25.6,29.90,North,351,3.0,5.0,95,0.00,,,0.00,HR-IXPWINDi_r2_v1.2.,2013-01-22 01:44:00,
2013-01-21 20:49:00,26.8,25.5,29.90,North,1,2.0,5.0,95,0.00,,,0.00,HR-IXPWINDi_r2_v1.2.,2013-01-22 01:49:00,
2013-01-21 20:54:00,26.9,25.6,29.89,NNE,12,3.0,5.0,95,0.00,,,0.00,HR-IXPWINDi_r2_v1.2.,2013-01-22 01:54:00,
2013-01-21 20:59:00,26.9,25.6,29.90,NNE,32,1.0,5.0,95,0.00,,,0.00,HR-IXPWINDi_r2_v1.2.,2013-01-22 01:59:00,
2013-01-21 21:04:00,26.9,25.6,29.90,North,1,2.0,5.0,95,0.00,,,0.00,HR-IXPWINDi_r2_v1.2.,2013-01-22 02:04:00,
2013-01-21 21:09:00,27.0,25.7,29.90,North,11,2.0,5.0,95,0.00,,,0.00,HR-IXPWINDi_r2_v1.2.,2013-01-22 02:09:00,
2013-01-21 21:15:00,27.0,25.7,29.90,NNW,342,2.0,5.0,95,0.00,,,0.00,HR-IXPWINDi_r2_v1.2.,2013-01-22 02:15:00,
2013-01-21 21:20:00,26.9,25.6,29.89,North,352,1.0,5.0,95,0.00,,,0.00,HR-IXPWINDi_r2_v1.2.,2013-01-22 02:20:00,
2013-01-21 21:25:00,26.9,25.6,29.89,North,4,1.0,3.0,95,0.00,,,0.00,HR-IXPWINDi_r2_v1.2.,2013-01-22 02:25:00,
2013-01-21 21:30:00,26.9,25.6,29.89,North,1,2.0,3.0,95,0.00,,,0.00,HR-IXPWINDi_r2_v1.2.,2013-01-22 02:30:00,
2013-01-21 21:36:00,26.8,25.5,29.89,NNW,342,2.0,2.0,95,0.00,,,0.00,HR-IXPWINDi_r2_v1.2.,2013-01-22 02:36:00,
2013-01-21 21:41:00,26.8,25.5,29.89,NNE,12,1.0,4.0,95,0.00,,,0.00,HR-IXPWINDi_r2_v1.2.,2013-01-22 02:41:00,
2013-01-21 21:46:00,26.8,25.5,29.88,North,349,2.0,4.0,95,0.00,,,0.00,HR-IXPWINDi_r2_v1.2.,2013-01-22 02:46:00,
2013-01-21 21:51:00,26.8,25.5,29.88,NNW,342,1.0,5.0,95,0.00,,,0.00,HR-IXPWINDi_r2_v1.2.,2013-01-22 02:51:00,
2013-01-21 21:56:00,26.7,25.4,29.87,NNE,13,2.0,5.0,95,0.00,,,0.00,HR-IXPWINDi_r2_v1.2.,2013-01-22 02:56:00,
2013-01-21 22:01:00,26.7,25.4,29.87,NNW,344,1.0,3.0,95,0.00,,,0.00,HR-IXPWINDi_r2_v1.2.,2013-01-22 03:01:00,
2013-01-21 22:06:00,26.7,25.4,29.87,NNE,12,0.0,2.0,95,0.00,,,0.00,HR-IXPWINDi_r2_v1.2.,2013-01-22 03:06:00,
2013-01-21 22:11:00,26.6,25.4,29.86,NNE,23,0.0,2.0,95,0.00,,,0.00,HR-IXPWINDi_r2_v1.2.,2013-01-22 03:11:00,
2013-01-21 22:17:00,26.6,25.4,29.86,NNE,25,0.0,1.0,95,0.00,,,0.00,HR-IXPWINDi_r2_v1.2.,2013-01-22 03:17:00,
2013-01-21 22:22:00,26.6,25.4,29.86,NNE,25,0.0,0.0,95,0.00,,,0.00,HR-IXPWINDi_r2_v1.2.,2013-01-22 03:22:00,
2013-01-21 22:27:00,26.5,25.3,29.87,NNE,25,0.0,0.0,95,0.00,,,0.00,HR-IXPWINDi_r2_v1.2.,2013-01-22 03:27:00,
2013-01-21 22:32:00,26.5,25.3,29.86,NNE,23,0.0,0.0,95,0.00,,,0.00,HR-IXPWINDi_r2_v1.2.,2013-01-22 03:32:00,
2013-01-21 22:38:00,26.4,25.2,29.86,NNE,23,0.0,0.0,95,0.00,,,0.00,HR-IXPWINDi_r2_v1.2.,2013-01-22 03:38:00,
2013-01-21 22:43:00,26.3,25.1,29.85,NNE,23,0.0,0.0,95,0.00,,,0.00,HR-IXPWINDi_r2_v1.2.,2013-01-22 03:43:00,
2013-01-21 22:48:00,26.3,25.1,29.86,NW,323,0.0,0.0,95,0.00,,,0.00,HR-IXPWINDi_r2_v1.2.,2013-01-22 03:48:00,
2013-01-21 22:53:00,26.3,25.3,29.85,North,349,1.0,2.0,96,0.00,,,0.00,HR-IXPWINDi_r2_v1.2.,2013-01-22 03:53:00,
2013-01-21 22:58:00,26.2,25.2,29.84,North,353,1.0,3.0,96,0.00,,,0.00,HR-IXPWINDi_r2_v1.2.,2013-01-22 03:58:00,
2013-01-21 23:03:00,26.1,24.9,29.83,NNE,22,0.0,3.0,95,0.00,,,0.00,HR-IXPWINDi_r2_v1.2.,2013-01-22 04:03:00,
2013-01-21 23:08:00,26.1,24.9,29.84,NNE,12,2.0,2.0,95,0.00,,,0.00,HR-IXPWINDi_r2_v1.2.,2013-01-22 04:08:00,
2013-01-21 23:14:00,26.1,24.9,29.84,NNE,16,1.0,2.0,95,0.00,,,0.00,HR-IXPWINDi_r2_v1.2.,2013-01-22 04:14:00,
2013-01-21 23:19:00,26.0,24.8,29.83,NNW,344,2.0,4.0,95,0.00,,,0.00,HR-IXPWINDi_r2_v1.2.,2013-01-22 04:19:00,
2013-01-21 23:24:00,25.9,24.7,29.83,North,352,1.0,4.0,95,0.00,,,0.00,HR-IXPWINDi_r2_v1.2.,2013-01-22 04:24:00,
2013-01-21 23:30:00,25.8,24.6,29.83,NNE,26,3.0,4.0,95,0.00,,,0.00,HR-IXPWINDi_r2_v1.2.,2013-01-22 04:30:00,
2013-01-21 23:35:00,25.7,24.5,29.84,NNW,342,2.0,3.0,95,0.00,,,0.00,HR-IXPWINDi_r2_v1.2.,2013-01-22 04:35:00,
2013-01-21 23:40:00,25.6,24.4,29.83,NNE,13,1.0,3.0,95,0.00,,,0.00,HR-IXPWINDi_r2_v1.2.,2013-01-22 04:40:00,
2013-01-21 23:45:00,25.6,24.4,29.82,North,349,1.0,3.0,95,0.00,,,0.00,HR-IXPWINDi_r2_v1.2.,2013-01-22 04:45:00,
2013-01-21 23:50:00,25.4,24.2,29.82,NNW,345,2.0,4.0,95,0.00,,,0.00,HR-IXPWINDi_r2_v1.2.,2013-01-22 04:50:00,
2013-01-21 23:55:00,25.3,24.1,29.82,North,355,2.0,4.0,95,0.00,,,0.00,HR-IXPWINDi_r2_v1.2.,2013-01-22 04:55:00,